Location: Béaulencourt
(50.0796°N, 2.8795°E)
Time: 19:55:12
(UTC+00:00)

GEOS 3 Rocket - Pass Details

Date: 20 January 2026
Orbit: 768 x 845 km, 115.0° (Epoch: 16 February)

Event Time Altitude Azimuth Distance (km) Brightness Sun altitude
Rises 05:43:15 0° 137° (SE) 3,312 7.7 -17.8°
Reaches altitude 10° 05:45:31 10° 138° (SE) 2,395 6.8 -17.5°
Maximum altitude 05:50:45 87° 227° (SW) 832 3.6 -16.7°
Enters shadow 05:54:43 19° 317° (NW) 1,904 5.1 -16.0°
